Content
SEND FEEDBACK

Daily
Averages
Monthly
Summary
France

ROUEN, FRANCE


Home > Europe > France
Elevation: 515 feet     Latitude: 49 23N     Longitude: 001 11E

WEATHER
 
SELECT A DAY
Number of Records: 172,223;   Date Range: 7/1/96 - 7/9/14
 
SHARE

PRINT THIS DATA

[ ← Previous Day ]
WEATHER ALMANAC - APRIL 21, 2013
[ Next Day → ]
[ °C ]   °F
Weather ElementAverageHighLow
Temperature45.3 °F57.2 °F (4:00 pm)33.8 °F (6:30 am)
Dewpoint32.5 °F37.4 °F (9:30 am)15.8 °F (7:30 pm)
Humidity64.1 %93 % (4:30 am)16 % (8:00 pm)
Barometer30.17 in30.32 in (2:00 am)30.09 in (3:30 pm)
Wind Speed6.7 mph11.5 mph (5:30 pm)
Weather ElementAverage
Visibility6.8 mi
Wind DirectionWSW (239 °)

Weather ElementTotal
Precipitation---
Heating Degree Days19.5 (Base 65)
Averaged from 51 records on April 21, 2013
WEATHER CONDITIONS BREAKOUT
WIND DIRECTION BREAKOUT
WEATHER BY HOUR - APRIL 21, 2013
[ °C ]   °F
Local TimeTemperatureDewpointHumidityBarometerVisibilityWind DirectionWind SpeedGust SpeedPrecipitationEventsConditions
12:30 AM41.0 °F35.6 °F81 %30.30 in6.2 miNNE (20°)9.2 mph
1:00 AM41.0 °F35.6 °F81 %30.30 in6.2 miNorth (10°)8.1 mph
1:30 AM39.2 °F35.6 °F87 %30.30 in6.2 miNorth (10°)9.2 mph
2:00 AM39.0 °F35.0 °F79 %30.32 in10.0 miNNE (20°)9.2 mphClear
2:00 AM39.2 °F35.6 °F87 %30.27 in6.2 miNNE (20°)9.2 mph
2:30 AM39.2 °F33.8 °F81 %30.27 in6.2 miNorth (10°)8.1 mph
3:00 AM39.2 °F33.8 °F81 %30.27 in6.2 miNNE (20°)8.1 mph
3:30 AM37.4 °F33.8 °F87 %30.24 in6.2 miNNE (30°)8.1 mph
4:00 AM37.4 °F33.8 °F87 %30.24 in6.2 miNNE (30°)8.1 mph
4:30 AM35.6 °F33.8 °F93 %30.24 in6.2 miNorth (360°)5.8 mph
5:00 AM37.4 °F33.8 °F87 %30.21 in6.2 miNorth (350°)3.5 mph
5:30 AM35.6 °F33.8 °F93 %30.21 in6.2 miNorth (360°)4.6 mph
6:00 AM35.6 °F33.8 °F93 %30.21 in6.2 miNorth (10°)4.6 mph
6:30 AM33.8 °F32.0 °F93 %30.21 in4.3 miNW (320°)5.8 mph
7:00 AM33.8 °F32.0 °F93 %30.21 in5.0 miNorth (350°)4.6 mph
7:30 AM33.8 °F32.0 °F93 %30.21 in5.0 miNNW (340°)5.8 mph
8:00 AM36.0 °F34.0 °F90 %30.24 in6.0 miNNW (330°)4.6 mph
8:00 AM35.6 °F33.8 °F93 %30.21 in5.6 miNNW (330°)4.6 mph
8:30 AM39.2 °F35.6 °F87 %30.21 in6.2 miNNW (330°)3.5 mph
9:00 AM41.0 °F35.6 °F81 %30.21 in6.2 miNorth (350°)4.6 mph
9:30 AM44.6 °F37.4 °F76 %30.21 in6.2 miVariable2.3 mph
10:00 AM46.4 °F37.4 °F71 %30.21 in6.2 miWest (280°)3.5 mph
10:30 AM46.4 °F37.4 °F71 %30.18 in6.2 miWNW (290°)5.8 mph
11:00 AM48.2 °F37.4 °F66 %30.18 in6.2 miWNW (290°)6.9 mph
11:30 AM50.0 °F35.6 °F58 %30.18 in6.2 miNW (310°)5.8 mph
12:00 PM51.8 °F33.8 °F50 %30.18 in6.2 miWNW (290°)8.1 mph
12:30 PM53.6 °F35.6 °F51 %30.18 in6.2 miWNW (300°)6.9 mph
1:00 PM53.6 °F37.4 °F54 %30.15 in6.2 miWNW (290°)5.8 mph
1:30 PM53.6 °F35.6 °F51 %30.15 in6.2 miWest (270°)5.8 mph
2:00 PM54.0 °F35.0 °F37 %30.16 in11.0 miWest (270°)5.8 mphScattered Clouds
2:00 PM55.4 °F35.6 °F47 %30.15 in6.2 miWest (270°)5.8 mph
2:30 PM55.4 °F33.8 °F44 %30.12 in6.2 miWNW (290°)5.8 mph
3:00 PM55.4 °F33.8 °F44 %30.12 in6.2 miNNW (340°)4.6 mph
3:30 PM55.4 °F33.8 °F44 %30.09 in6.2 miVariable5.8 mph
4:00 PM57.2 °F37.4 °F48 %30.09 in6.2 miWest (270°)9.2 mph
4:30 PM55.4 °F33.8 °F44 %30.09 in6.2 miNW (310°)8.1 mph
5:00 PM55.4 °F35.6 °F47 %30.09 in6.2 miWNW (290°)10.4 mph
5:30 PM55.4 °F33.8 °F44 %30.09 in6.2 miWNW (290°)11.5 mph
6:00 PM55.4 °F33.8 °F44 %30.09 in6.2 miWNW (290°)10.4 mph
6:30 PM53.6 °F32.0 °F44 %30.09 in6.2 miWNW (290°)9.2 mph
7:00 PM53.6 °F28.4 °F38 %30.09 in6.2 miWNW (290°)11.5 mph
7:30 PM51.8 °F15.8 °F24 %30.09 in6.2 miWNW (290°)10.4 mph
8:00 PM49.0 °F17.0 °F16 %30.12 in34.0 miWest (280°)6.9 mphClear
8:00 PM48.2 °F17.6 °F30 %30.09 in6.2 miWest (280°)6.9 mph
8:30 PM46.4 °F21.2 °F37 %30.09 in6.2 miWNW (290°)6.9 mph
9:00 PM44.6 °F24.8 °F46 %30.09 in6.2 miWNW (300°)6.9 mph
9:30 PM42.8 °F24.8 °F49 %30.12 in6.2 miWNW (300°)5.8 mph
10:00 PM42.8 °F26.6 °F53 %30.12 in6.2 miNW (310°)4.6 mph
10:30 PM42.8 °F28.4 °F57 %30.09 in6.2 miNNW (330°)5.8 mph
11:00 PM41.0 °F30.2 °F65 %30.09 in6.2 miNNW (340°)5.8 mph
11:30 PM41.0 °F32.0 °F70 %30.09 in6.2 miNorth (350°)3.5 mph
Hourly data recorded from LFOP, located miles away from Rouen, France







STORIES FROM OUR PARTNERS